Location: Orangeville
(43.9200°N, 80.0943°W)
Time: 09:37:55
(UTC-05:00)

ISS - Pass Details

Date: 03 December 2021
Orbit: 413 x 422 km, 51.6° (Epoch: 24 January)

Event Time Altitude Azimuth Distance (km) Brightness Sun altitude
Rises 17:14:25 0° 300° (WNW) 2,384 0.6 -5.8°
Reaches altitude 10° 17:16:46 10° 314° (NW) 1,516 -0.6 -6.2°
Maximum altitude 17:19:40 25° 12° (NNE) 897 -2.4 -6.7°
Drops below altitude 10° 17:22:33 10° 70° (ENE) 1,508 -1.6 -7.1°
Enters shadow 17:22:42 - 71° (ENE) 1,565 -1.5 -7.2°
